Location: Dackenheim
(49.5215°N, 8.1854°E)
Time: 02:38:00
(UTC+00:00)

UWE-3 - Pass Details

Date: 18 March 2026
Orbit: 543 x 612 km, 97.9° (Epoch: 12 April)

Event Time Altitude Azimuth Distance (km) Brightness Sun altitude
Rises 02:38:02 0° 11° (N) 2,886 ? -27.8°
Reaches altitude 10° 02:40:15 10° 9° (N) 1,971 ? -27.5°
Enters shadow 02:42:59 38° 358° (N) 932 ? -27.2°
